Location: Ammerl�gen
(47.2167°N, 9.6000°E)
Time: 11:24:03
(UTC+00:00)

CZ-4 R/B DEB - Pass Details

Date: 20 October 2021
Orbit: 738 x 791 km, 98.5° (Epoch: 26 November)

Event Time Altitude Azimuth Distance (km) Brightness Sun altitude
Exits shadow 18:05:21 32° 92° (E) 1,246 ? -17.8°
Maximum altitude 18:06:20 36° 66° (ENE) 1,171 ? -17.9°
Drops below altitude 10° 18:10:50 10° 1° (N) 2,259 ? -18.7°
Sets 18:13:16 0° 353° (N) 3,189 ? -19.1°
